Location: Góry Miechowskie
(50.3599°N, 20.1803°E)
Time: 21:28:47
(UTC+00:00)

Cosmos 2219 - Pass Details

Date: 22 September 2024
Orbit: 831 x 860 km, 71.1° (Epoch: 13 October)

Event Time Altitude Azimuth Distance (km) Brightness Sun altitude
Rises 01:31:58 0° 143° (SE) 3,397 6.4 -26.7°
Reaches altitude 10° 01:36:30 10° 109° (ESE) 2,478 6.0 -26.1°
Maximum altitude 01:37:59 11° 94° (E) 2,410 6.2 -25.9°
Drops below altitude 10° 01:39:28 10° 79° (ENE) 2,488 6.5 -25.7°
Sets 01:44:01 0° 45° (NE) 3,438 7.7 -25.1°
